SPOC (46921 NORAD) Tracking and Keplerian Element Data

This shows tracking and keplerian element data for the satellite.

Feedback or suggestion? Click here.




ElementValue
Catalog46921
NameSPOC
Epoch Orbit9313
Epoch Day175.44526769
Epoch Year2022
RAAN248.2954
Inclination51.613
Eccentricity0.0008877
Argument of Perigee320.6564
Mean Anonmoly39.3814
Mean Motion16.35363181
Decay Rate0.05489333
L11 46921U 98067RR 22175.44526769 .05489333 12350-4 66926-3 0 9994
L22 46921 51.6130 248.2954 0008877 320.6564 39.3814 16.35363181 93131



Live tracking and technical data element details for SPOC (NORAD 46921). SPOC can be tracked NOW for your location showing map with azimuth and elevation plus other details from your city location.







IsCatalogInMostPopularTable: catalog: 46921, numindb: 193
Update: records affected: 1



GetName: 46921 SPOC

Hit Count: updated at: Thu, 23 Jan 2025 17:50:44 GMT